When you browse on this site, cookies collect data to enhance your experience and personalize the content and advertising you see.
Visit our Privacy Policy to learn more. By continuing to use the site, you agree to this use of cookies and data.
  • In Schweiz
  • Länderverzeichnis
  • Für 7 Tage
  • Wassertemperatur
  • Wetterkarte
  • Widgets
  • user-avatar
    Anmelden

    Stündliche Wetter Cairns

    Heute, 26 Mai, Dienstag

    Zeit Temperatur Niederschläge Wind Luftdruck Luftfeuchtigkeit
    00:00 +13°C° 0 mm 3 m/S 763 mmHg 87%
    01:00 +13°C° 0 mm 3 m/S 763 mmHg 86%
    02:00 +14°C° 0 mm 2 m/S 762 mmHg 86%
    03:00 +14°C° 0 mm 2 m/S 762 mmHg 85%
    04:00 +14°C° 0 mm 2 m/S 762 mmHg 85%
    05:00 +14°C° 0 mm 2 m/S 762 mmHg 84%
    06:00 +14°C° 0 mm 2 m/S 763 mmHg 83%
    07:00 +14°C° 0 mm 2 m/S 763 mmHg 82%
    08:00 +17°C° 0 mm 2 m/S 763 mmHg 72%
    09:00 +20°C° 0 mm 3 m/S 763 mmHg 62%
    10:00 +24°C° 0 mm 3 m/S 764 mmHg 51%
    11:00 +25°C° 0 mm 3 m/S 763 mmHg 50%
    12:00 +26°C° 0 mm 3 m/S 762 mmHg 48%
    13:00 +27°C° 0 mm 3 m/S 762 mmHg 47%
    14:00 +26°C° 0 mm 4 m/S 762 mmHg 52%
    15:00 +25°C° 0 mm 4 m/S 761 mmHg 57%
    16:00 +23°C° 0 mm 4 m/S 761 mmHg 64%
    17:00 +21°C° 0 mm 3 m/S 762 mmHg 73%
    18:00 +19°C° 0 mm 3 m/S 762 mmHg 82%
    19:00 +17°C° 0 mm 3 m/S 762 mmHg 92%
    20:00 +17°C° 0 mm 3 m/S 763 mmHg 92%
    21:00 +16°C° 0 mm 3 m/S 763 mmHg 92%
    22:00 +16°C° 0 mm 2 m/S 763 mmHg 90%
    23:00 +16°C° 0 mm 2 m/S 763 mmHg 89%

    Morgen, 27 Mai, Mittwoch

    Zeit Temperatur Niederschläge Wind Luftdruck Luftfeuchtigkeit
    00:00 +15°C° 0 mm 2 m/S 763 mmHg 89%
    01:00 +15°C° 0 mm 2 m/S 763 mmHg 89%
    02:00 +15°C° 0 mm 2 m/S 763 mmHg 89%
    03:00 +15°C° 0 mm 2 m/S 762 mmHg 89%
    04:00 +15°C° 0 mm 2 m/S 762 mmHg 89%
    05:00 +15°C° 0 mm 2 m/S 762 mmHg 89%
    06:00 +15°C° 0 mm 2 m/S 763 mmHg 89%
    07:00 +15°C° 0 mm 2 m/S 763 mmHg 88%
    08:00 +18°C° 0 mm 2 m/S 763 mmHg 77%
    09:00 +21°C° 0 mm 2 m/S 764 mmHg 66%
    10:00 +25°C° 0 mm 3 m/S 764 mmHg 55%
    11:00 +26°C° 0 mm 3 m/S 763 mmHg 52%
    12:00 +27°C° 0 mm 3 m/S 762 mmHg 50%
    13:00 +28°C° 0 mm 3 m/S 762 mmHg 48%
    14:00 +27°C° 0 mm 4 m/S 761 mmHg 53%
    15:00 +26°C° 0 mm 4 m/S 761 mmHg 58%
    16:00 +26°C° 0 mm 4 m/S 761 mmHg 63%
    17:00 +22°C° 0 mm 4 m/S 761 mmHg 73%
    18:00 +20°C° 0 mm 4 m/S 762 mmHg 83%
    19:00 +18°C° 0 mm 4 m/S 762 mmHg 93%
    20:00 +18°C° 0 mm 3 m/S 762 mmHg 94%
    21:00 +17°C° 0 mm 3 m/S 763 mmHg 95%
    22:00 +17°C° 0 mm 3 m/S 763 mmHg 96%
    23:00 +17°C° 0 mm 3 m/S 763 mmHg 96%

    übermorgen, 28 Mai, Donnerstag

    Zeit Temperatur Niederschläge Wind Luftdruck Luftfeuchtigkeit
    00:00 +17°C° 0 mm 3 m/S 763 mmHg 96%
    01:00 +17°C° 0 mm 3 m/S 762 mmHg 95%
    02:00 +17°C° 0 mm 3 m/S 762 mmHg 95%
    03:00 +17°C° 0 mm 3 m/S 762 mmHg 94%
    04:00 +17°C° 0 mm 3 m/S 762 mmHg 94%
    05:00 +17°C° 0 mm 3 m/S 762 mmHg 94%
    06:00 +17°C° 0 mm 3 m/S 762 mmHg 94%
    07:00 +16°C° 0 mm 3 m/S 763 mmHg 94%
    08:00 +19°C° 0 mm 3 m/S 763 mmHg 83%
    09:00 +22°C° 0 mm 3 m/S 763 mmHg 71%
    10:00 +26°C° 0 mm 3 m/S 764 mmHg 60%
    11:00 +27°C° 0 mm 4 m/S 763 mmHg 57%
    12:00 +28°C° 0 mm 4 m/S 762 mmHg 55%
    13:00 +29°C° 0 mm 4 m/S 761 mmHg 52%
    14:00 +28°C° 0 mm 4 m/S 761 mmHg 56%
    15:00 +28°C° 0 mm 4 m/S 761 mmHg 59%
    16:00 +27°C° 0 mm 4 m/S 761 mmHg 63%
    17:00 +25°C° 0 mm 4 m/S 761 mmHg 74%
    18:00 +22°C° 0 mm 4 m/S 762 mmHg 84%
    19:00 +20°C° 0 mm 4 m/S 762 mmHg 95%
    20:00 +20°C° 0 mm 4 m/S 763 mmHg 95%
    21:00 +19°C° 0 mm 4 m/S 763 mmHg 96%
    22:00 +19°C° 0 mm 4 m/S 763 mmHg 96%
    23:00 +19°C° 0 mm 4 m/S 763 mmHg 96%

    29 Mai, Freitag

    Zeit Temperatur Niederschläge Wind Luftdruck Luftfeuchtigkeit
    00:00 +19°C° 0 mm 4 m/S 763 mmHg 96%
    01:00 +18°C° 0 mm 4 m/S 763 mmHg 96%
    02:00 +18°C° 0 mm 4 m/S 763 mmHg 95%
    03:00 +18°C° 0 mm 4 m/S 762 mmHg 94%
    04:00 +17°C° 0 mm 4 m/S 762 mmHg 93%
    05:00 +17°C° 0 mm 4 m/S 762 mmHg 93%
    06:00 +17°C° 0 mm 4 m/S 763 mmHg 93%
    07:00 +17°C° 0 mm 4 m/S 763 mmHg 93%
    08:00 +20°C° 0 mm 4 m/S 763 mmHg 83%
    09:00 +23°C° 0 mm 4 m/S 763 mmHg 73%
    10:00 +26°C° 0 mm 4 m/S 763 mmHg 63%
    11:00 +27°C° 0 mm 5 m/S 763 mmHg 62%
    12:00 +28°C° 0 mm 5 m/S 762 mmHg 60%
    13:00 +29°C° 0 mm 5 m/S 762 mmHg 59%
    14:00 +28°C° 0 mm 5 m/S 761 mmHg 61%
    15:00 +28°C° 0 mm 5 m/S 761 mmHg 63%
    16:00 +27°C° 0 mm 5 m/S 761 mmHg 64%
    17:00 +25°C° 0 mm 5 m/S 761 mmHg 71%
    18:00 +22°C° 0 mm 5 m/S 762 mmHg 77%
    19:00 +20°C° 0 mm 5 m/S 763 mmHg 84%
    20:00 +19°C° 0 mm 5 m/S 763 mmHg 84%
    21:00 +19°C° 0 mm 4 m/S 763 mmHg 83%
    22:00 +18°C° 0 mm 4 m/S 763 mmHg 83%
    23:00 +18°C° 0 mm 4 m/S 763 mmHg 84%

    30 Mai, Samstag

    Zeit Temperatur Niederschläge Wind Luftdruck Luftfeuchtigkeit
    00:00 +18°C° 0 mm 4 m/S 763 mmHg 85%
    01:00 +18°C° 0 mm 4 m/S 763 mmHg 87%
    02:00 +18°C° 0 mm 4 m/S 763 mmHg 88%
    03:00 +18°C° 0 mm 4 m/S 763 mmHg 89%
    04:00 +18°C° 0 mm 4 m/S 762 mmHg 91%
    05:00 +17°C° 0 mm 5 m/S 762 mmHg 91%
    06:00 +19°C° 0 mm 5 m/S 763 mmHg 92%
    07:00 +19°C° 0 mm 5 m/S 763 mmHg 92%
    08:00 +21°C° 0 mm 5 m/S 763 mmHg 83%
    09:00 +23°C° 0 mm 5 m/S 763 mmHg 74%
    10:00 +27°C° 0 mm 5 m/S 763 mmHg 64%
    11:00 +27°C° 0 mm 5 m/S 763 mmHg 63%
    12:00 +28°C° 0 mm 6 m/S 762 mmHg 62%
    13:00 +29°C° 0 mm 6 m/S 762 mmHg 61%
    14:00 +28°C° 0 mm 6 m/S 762 mmHg 64%
    15:00 +27°C° 0 mm 6 m/S 761 mmHg 67%
    16:00 +27°C° 0 mm 5 m/S 761 mmHg 69%
    17:00 +25°C° 0 mm 5 m/S 761 mmHg 77%
    18:00 +23°C° 0 mm 5 m/S 762 mmHg 84%
    19:00 +21°C° 0 mm 4 m/S 762 mmHg 92%
    20:00 +21°C° 0 mm 4 m/S 763 mmHg 91%
    21:00 +21°C° 0 mm 4 m/S 763 mmHg 91%
    22:00 +21°C° 0 mm 4 m/S 763 mmHg 91%
    23:00 +21°C° 0 mm 4 m/S 763 mmHg 91%

    31 Mai, Sonntag

    Zeit Temperatur Niederschläge Wind Luftdruck Luftfeuchtigkeit
    00:00 +21°C° 0 mm 4 m/S 763 mmHg 91%
    01:00 +21°C° 0 mm 4 m/S 762 mmHg 91%
    02:00 +21°C° 0 mm 3 m/S 762 mmHg 93%
    03:00 +20°C° 0 mm 3 m/S 762 mmHg 94%
    04:00 +20°C° 0 mm 3 m/S 762 mmHg 95%
    05:00 +20°C° 0 mm 3 m/S 762 mmHg 95%
    06:00 +20°C° 0 mm 3 m/S 762 mmHg 96%
    07:00 +20°C° 0 mm 3 m/S 763 mmHg 96%
    08:00 +22°C° 0 mm 3 m/S 763 mmHg 86%
    09:00 +26°C° 0 mm 4 m/S 763 mmHg 77%
    10:00 +28°C° 0 mm 4 m/S 763 mmHg 67%
    11:00 +29°C° 0 mm 4 m/S 762 mmHg 66%
    12:00 +29°C° 0 mm 4 m/S 762 mmHg 64%
    13:00 +30°C° 0 mm 5 m/S 761 mmHg 63%
    14:00 +29°C° 0 mm 5 m/S 761 mmHg 66%
    15:00 +29°C° 0 mm 5 m/S 761 mmHg 68%
    16:00 +28°C° 0 mm 5 m/S 760 mmHg 71%
    17:00 +27°C° 0 mm 5 m/S 761 mmHg 79%
    18:00 +25°C° 0 mm 4 m/S 761 mmHg 87%
    19:00 +22°C° 0 mm 4 m/S 762 mmHg 95%
    20:00 +22°C° 0 mm 4 m/S 762 mmHg 95%
    21:00 +22°C° 0 mm 4 m/S 762 mmHg 96%
    22:00 +21°C° 0 mm 4 m/S 763 mmHg 96%
    23:00 +21°C° 0 mm 3 m/S 762 mmHg 97%
    Mehr zeigen